Location: Taupo
(38.6830°S, 176.0830°E)
Time: 09:04:02
(UTC+13:00)

Cosmos 1515 Rocket - Pass Details

Date: 24 January 2019
Orbit: 607 x 630 km, 82.5° (Epoch: 21 October)

Event Time Altitude Azimuth Distance (km) Brightness Sun altitude
Exits shadow 21:23:10 - 11° (N) 2,817 6.5 -8.6°
Reaches altitude 10° 21:25:13 10° 17° (NNE) 2,013 5.7 -9.0°
Maximum altitude 21:29:27 43° 88° (E) 899 4.0 -9.6°
Drops below altitude 10° 21:33:44 10° 159° (SSE) 2,038 6.4 -10.3°
Sets 21:36:04 0° 165° (SSE) 2,952 7.3 -10.7°
